Flag for United Kingdom Weather past 2 weeks in Luton, England, United Kingdom

Now
43 °F

Passing clouds.


Feels Like: 34 °F
Forecast: 39 / 47 °F
Wind: 18 mph from West

Location: Luton Airport

Current Time: Dec 20, 2014 at 7:38:13 AM

Latest Report: Dec 20, 2014 at 7:20 AM


Visibility: N/A

Pressure: 30.18 "Hg

Humidity: 81%

Dew point: 37 °F

Location of LutonLocation

Historic Weather in Luton — Graph

°F

Luton temperature yesterday

Maximum temperature yesterday: 54 °F (at 12:20 AM)
Minimum temperature yesterday: 39 °F (at 9:20 PM)
Average temperature yesterday: 46 °F

Past Weeks' High & Low Weather Summary

 TemperatureHumidityPressure
High55 °F (Dec 18, 11:50 AM)100% (Dec 5, 6:20 AM)30.36 "Hg (Dec 5, 6:20 AM)
Low30 °F (Dec 6, 6:20 AM)66% (Dec 10, 9:50 AM)29.21 "Hg (Dec 12, 4:50 AM)
Average42 °F88%29.91 "Hg
* Reported Dec 5 6:20 AM — Dec 20 6:20 AM, Luton, Weather by CustomWeather, © 2014

Note: Actual official high and low records may vary slightly from our data, if they occured in-between our weather recording intervals... More about our weather records

Advertising

Luton weather history for previous 24 hours

 ConditionsComfort  
Time TempWeatherWind HumidityBarometerVisibility
6:20 AM
Dec 20
43 °FPassing clouds.18 mph81%30.18 "HgN/A
5:50 AM43 °FPassing clouds.16 mph76%30.18 "HgN/A
5:20 AM43 °FPassing clouds.16 mph76%30.18 "HgN/A
4:50 AM43 °FPassing clouds.14 mph76%30.18 "HgN/A
4:20 AM43 °FPassing clouds.15 mph81%30.18 "HgN/A
3:50 AM43 °FPassing clouds.14 mph81%30.18 "HgN/A
3:20 AM43 °FPassing clouds.15 mph76%30.18 "HgN/A
2:50 AM43 °FOvercast.15 mph76%30.18 "HgN/A
2:20 AM43 °FClear.17 mph76%30.18 "Hg10 mi
1:50 AM41 °FClear.18 mph81%30.18 "Hg10 mi
1:20 AM41 °FClear.17 mph81%30.18 "Hg10 mi
12:50 AM41 °FQuite cool.17 mph81%30.18 "HgN/A
12:20 AM41 °FQuite cool.15 mph81%30.18 "HgN/A
11:50 PM
Dec 19
41 °FClear.13 mph81%30.18 "Hg10 mi
11:20 PM41 °FClear.13 mph81%30.18 "Hg10 mi
10:50 PM39 °FClear.13 mph87%30.15 "Hg10 mi
10:20 PM39 °FClear.9 mph87%30.15 "Hg10 mi
9:50 PM39 °FClear.9 mph87%30.15 "Hg10 mi
9:20 PM39 °FClear.12 mph87%30.15 "Hg10 mi
8:50 PM41 °FClear.8 mph81%30.15 "Hg10 mi
8:20 PM41 °FClear.8 mph81%30.12 "Hg10 mi
7:50 PM41 °FClear.8 mph81%30.12 "Hg10 mi
7:20 PM41 °FClear.13 mph81%30.09 "Hg10 mi
6:50 PM43 °FClear.15 mph76%30.09 "Hg10 mi
6:20 PM43 °FClear.16 mph76%30.09 "Hg10 mi
5:50 PM43 °FClear.16 mph76%30.07 "Hg10 mi
5:20 PM43 °FClear.15 mph76%30.07 "Hg10 mi
4:50 PM43 °FClear.20 mph76%30.04 "Hg10 mi
4:20 PM45 °FClear.17 mph71%30.04 "Hg10 mi
3:50 PM45 °FPassing clouds.17 mph71%30.01 "HgN/A
3:20 PM45 °FPassing clouds.17 mph71%30.01 "HgN/A
2:50 PM45 °FPassing clouds.20 mph71%29.98 "HgN/A
2:20 PM46 °FScattered clouds.21 mph66%29.98 "HgN/A
1:50 PM46 °FPassing clouds.22 mph66%29.98 "HgN/A
1:20 PM46 °FPassing clouds.23 mph71%29.98 "HgN/A
12:50 PM46 °FPassing clouds.20 mph71%29.98 "HgN/A
12:20 PM46 °FSunny.20 mph71%29.98 "Hg10 mi
11:50 AM46 °FSunny.21 mph71%29.95 "Hg10 mi
11:20 AM46 °FSunny.18 mph71%29.95 "Hg10 mi
10:50 AM46 °FSunny.18 mph71%29.95 "Hg10 mi
10:20 AM45 °FSunny.17 mph71%29.95 "Hg10 mi
9:50 AM45 °FSunny.15 mph76%29.92 "Hg10 mi
9:20 AM45 °FPassing clouds.15 mph81%29.89 "HgN/A
8:50 AM45 °FPartly sunny.13 mph87%29.89 "HgN/A
8:20 AM46 °FScattered clouds.15 mph82%29.86 "HgN/A
7:50 AM46 °FPartly cloudy.18 mph87%29.83 "HgN/A
7:20 AM48 °FPassing clouds.14 mph87%29.83 "HgN/A
Weather by CustomWeather, © 2014

See weather overviewHow to use our weather pages